Regional Weather Roundup
Issued by NWS Wakefield, VA

Home | Current Version | Previous Version | Graphics & Text | Print | Product List | Glossary On
Versions: 1 2 3 4 5 6 7 8 9 10 11 12 13 14 15 16 17 18 19 20 21 22 23 24 25 26 27 28 29 30 31 32 33 34 35 36 37 38 39 40 41 42 43 44 45 46 47 48 49
000
ASUS41 KAKQ 011015
RWRAKQ

REGIONAL WEATHER ROUNDUP
NATIONAL WEATHER SERVICE WAKEFIELD VA
600 AM EDT SAT AUG 01 2015

Note: "fair" indicates few or no clouds below 12,000 feet with no
significant weather and/or obstructions to visibility. * = Denotes
station may not report precipitation (e.g., rain,snow,etc.),
thunder or fog.

VAZ042-051-052>054-056-011100-
NORTHERN VIRGINIA

CITY           SKY/WX    TMP DP  RH WIND       PRES   REMARKS
WASH NATIONAL  PTCLDY    74  64  71 SW6       29.87S
DULLES         PTCLDY    67  63  87 S3        29.87S
FORT BELVOIR   CLEAR     64  63  94 CALM      29.87S
QUANTICO       NOT AVBL
FREDERICKSBRG* CLEAR     67  67 100 CALM      29.88R
STAFFORD*      CLEAR     61  60  97 CALM      29.92S
WARRENTON      CLEAR     62  62 100 CALM      29.88S FOG
CULPEPER*        N/A     61  61 100 CALM      29.90S FOG
MANASSAS*      CLEAR     64  64 100 CALM      29.88R
LEESBURG*      CLOUDY    70  64  83 S3        29.88S
WINCHESTER     CLEAR     68  59  73 SW7       29.88S
FRONT ROYAL*   FAIR      66  59  77 S8        29.89S
LURAY*         FAIR      63  61  94 CALM      29.92S
$$

VAZ048-049-060>072-079>083-011100-
CENTRAL AND SOUTH CENTRAL VIRGINIA

CITY           SKY/WX    TMP DP  RH WIND       PRES   REMARKS
RICHMOND       PTCLDY    68  63  84 CALM      29.90R
CHESTERFIELD*  FAIR      66  54  63 CALM      29.91S
PETERSBURG*    PTCLDY    64  64 100 CALM      29.91S
HANOVER        CLEAR     66  62  87 CALM      29.91S
TAPPAHANNOCK*  CLEAR     66  62  85 CALM      29.89S
QUINTON*       FAIR      65  64  98 CALM      29.89S
CHARLOTTSVILLE CLEAR     66  61  84 S3        29.91R
GORDONSVILLE*  FAIR      61  61 100 SW3       29.90S
ORANGE*        CLEAR     64  63  94 CALM      29.91S
LOUISA*        CLEAR     64  61  88 CALM      29.90R
BUMPASS*       FAIR      62  62  99 MISG      29.90R
FARMVILLE*     CLEAR     60  60 100 CALM      29.91S FOG
CREWE*         FAIR     N/A N/A N/A CALM      29.92R
FORT PICKETT*  FAIR      65  61  86 W5        29.92S
CHASE CITY*    FAIR      67  65  94 CALM      29.94R
CLARKSVILLE*   FAIR      64  63  94 CALM      29.93S
SOUTH HILL*    CLEAR     62  61  97 CALM      29.98S
LAWRENCEVILLE* FAIR      64  63  94 CALM      29.92R
EMPORIA*       CLEAR     63  63 100 CALM      29.92S FOG
$$

VAZ088>098-011100-
SOUTHEAST VIRGINIA

CITY           SKY/WX    TMP DP  RH WIND       PRES   REMARKS
NORFOLK        CLEAR     72  65  78 SW8       29.89S
VIRGINIA BEACH PTCLDY    73  65  75 CALM      29.89R
NORFOLK NAVAL  PTCLDY    72  65  78 SW5       29.91R
WEST POINT*    PTCLDY    73  68  82 CALM      29.91S
SALUDA*        FAIR      71  68  88 SW3       29.88S
NEWPORT NEWS   CLEAR     73  68  84 SW6       29.89S
LANGLEY AFB    CLEAR     71  66  85 SW6       29.89S
FORT EUSTIS    CLEAR     75  73  93 VRB1      29.88S
WILLIAMSBURG*  CLEAR     75  70  83 W5        29.91R
HR EXEC AP*    FAIR      63  61  94 CALM      29.92S
FRANKLIN*      CLEAR     66  65  97 CALM      29.90F
WAKEFIELD      CLEAR     69  66  90 S3        29.90S
$$

VAZ020-022-025-037-045-011100-
WEST CENTRAL AND SOUTHWEST VIRGINIA

CITY           SKY/WX    TMP DP  RH WIND       PRES   REMARKS
STAUNTON*      CLEAR     62  58  89 CALM      29.96S
WAYNESBORO*    FAIR      60  58  92 SW3       29.96S
HOT SPRINGS VA CLEAR     63  56  79 W13       30.05S
LYNCHBURG      CLEAR     60  58  92 CALM      29.96R
DANVILLE       CLEAR     64  62  93 CALM      29.95S
SOUTH BOSTON*  FAIR      63  61  94 CALM      29.94S
MARTINSVILLE   CLEAR     57  57 100 CALM      30.00R
ROANOKE        CLEAR     67  58  72 W7        29.99S
BLACKSBURG     CLEAR     59  59  99 CALM      30.06S
DUBLIN*          N/A     60  59  95 SW3       30.05S
MARION*        CLEAR     58  56  93 W7        30.09S
HILLSVILLE*    CLEAR     59  56  91 SW3       30.06R
RICHLANDS*     FAIR      60  58  94 CALM      30.08S
WISE*          CLEAR     63  55  77 SW5       30.09S
ABINGDON*      CLEAR     60  57  92 CALM      30.06F
$$

MDZ021>025-VAZ099-100-011100-
SOUTHERN MARYLAND AND THE DELMARVA PENINSULA

CITY           SKY/WX    TMP DP  RH WIND       PRES   REMARKS
PATUXENT RIVER CLEAR     70  63  78 SW7       29.86F
BAY BRIDGE APT   N/A     73  63  68 CALM      29.86R
LEONARDTOWN    CLEAR     68  61  77 CALM      29.89R
DOVER          CLEAR     71  69  91 SW9       29.83S
GEORGETOWN     CLEAR     72  66  81 W5        29.86S
EASTON         PTCLDY    73  68  84 SW3       29.90S
CAMBRIDGE      CLEAR     72  68  88 CALM      29.86S
SALISBURY      CLEAR     68  66  93 CALM      29.87S
OCEAN CITY     CLEAR     72  66  81 SW6       29.86S
WALLOPS ISLAND CLEAR     72  70  93 SW8       29.88S
ACCOMACK*      CLEAR     70  70 100 SW5       29.89S
$$

NCZ012>017-030>032-011100-
NORTH CENTRAL AND EASTERN NORTH CAROLINA

CITY           SKY/WX    TMP DP  RH WIND       PRES   REMARKS
ROANOKE RAPIDS FAIR      64  63  94 CALM      29.91F
RALEIGH        PTCLDY    66  64  93 CALM      29.94R
ELIZABETH CITY CLEAR     69  66  90 SW3       29.89F
AHOSKIE*       CLEAR     64  64  97 CALM      29.92R
EDENTON*         N/A     69  66  90 CALM      29.90S
CURRITUCK*     CLEAR     69  67  91 CALM      29.90S
KILL DEVIL HLS CLEAR     77  66  68 CALM      29.89S
MANTEO         CLEAR     71  66  85 CALM      29.90S
CAPE HATTERAS  CLOUDY    77  70  79 E5        29.90S
TARBORO*         N/A     67  66  96 NE3       29.93R FOG
GOLDSBORO      CLEAR     71  70  96 CALM      29.89R
WASHINGTON     CLEAR     71  70  97 CALM      29.90F FOG
GREENVILLE     CLEAR     72  72 100 CALM      29.93R FOG
NEW BERN       PTCLDY    75  72  90 CALM      29.91R
WILMINGTON     PTCLDY    74  72  93 SW3       29.90R
$$

VAZ048-011100-
ELSEWHERE

CITY           SKY/WX    TMP DP  RH WIND       PRES   REMARKS
HARRISBURG PA  PTCLDY    67  62  84 CALM      29.83R
BALTIMORE      PTCLDY    68  64  87 CALM      29.85S
ANNAPOLIS      CLEAR     73  64  73 NW3       29.85R
ANDREWS AFB    CLEAR     66  64  91 S5        29.87R
PHILADELPHIA   MOCLDY    75  66  73 SW7       29.83S
HENDERSON NC   CLEAR     71  56  60 NW6       29.94S
GREENSBORO     PTCLDY    67  60  78 CALM      29.97R
ROCKY MOUNT    CLEAR     66  64  93 N5        29.92R FOG
$$

VAZ100-011100-
MARINE

STATION/POSITION TIME  TEMP    WIND        PRES    WAVE   SWELL
                       AIR SEA DIR/SP/G            HT/PER HT/PER
                 (UTC) (F)     (DEG/KT/KT) (MB)    (FT/S) (FT/S)
BRANDYWINE LGT   0900   76 76  250/ 13/ 17 1010.8F
CAPE MAY NJ      0900   76 77  250/ 12/ 14 1010.2F
LEWES DE         0900   75 72  250/  6/ 10 1010.6F
15NM E FENWICK I 0950   79 79  250/ 12/ 16 1011.1F   3/ 8   2/ 8
OCEAN-CITY-INLET 0900   75 76  300/  8/ 11 1010.3S
WACHAPREAGUE VA  0900   74 83  240/  4/  6 1011.9S
GOOSES REEF MD   1000   78 81  270/  6/  8 1012.4R
COVE POINT MD    0900   76     280/ 10/ 12 1011.9F
SOLOMONS ISLAND  0900      83                N/A
BISHOPS HEAD MD  0900   82 81  250/ 13/ 14 1010.4R
PINEY POINT MD   0900          310/  8/ 10   N/A
POTOMAC MD       1000   78 82  270/  6/  8 1010.6S   1/ 2
CAMBRIDGE MD     0900   76 84  230/  5/  7 1010.2F
LEWISETTA VA     0900   73 83  240/  9/ 12 1011.3R
RAPPAHANNOCK LGT 0900          220/ 13/ 14 1012.3R
STINGRAY PT      1000   78 83  250/ 14/ 17 1011.9S   1/ 2
YORK RVR RNG VA  0900   78     250/ 12/ 15 1011.4S
YORKTOWN VA      0900   75 83  220/  8/ 11 1011.7R
JAMESTOWN VA     1000   73 85  240/  8/ 10   N/A
DOMINION TERM VA 0900   78     230/ 12/ 14 1011.7F
KIPTOPEKE VA     0900      81  230/  8/ 10   N/A
CHES BAY BRIDGE  0900   77 81  210/ 12/ 13 1011.4F
CAPE HENRY VA    0900   75     210/  7/ 11   N/A
CHESAPEAKE LGHT  0900   78     240/ 11/ 12 1012.6F
WILLOUBY STN VA  0900   78     230/ 12/ 13 1012.9F
CAPE HENRY BUOY  0928      80                N/A     2/ 9   2/11
1ST LANDING BUOY 1000      80              1011.9R   1/ 3
CAPE CHARLES BUO 0926      78                N/A     2/10   2/10
OFFSHORE WE BUOY 0911      82                N/A     3/ 9   3/ 9
64NM E OF VA BCH 0950   81 81  240/  8/ 10 1012.0R   3/ 8   3/ 8
DUCK PIER NC     0900   80 71  190/  6/  7 1011.5F
44100 DUCK FRF   0924      80                N/A     3/ 8
44056 DUCK FRF   0911      78                N/A     2/ 9   2/13
OREGON INLET NC  0900   78 79  140/  3/  4 1012.5F
HATTERAS NC      0900   79 80   80/  4/  5 1012.1F
DIAMOND SHLS NC  0950   82 85  150/  6/  8 1012.5F   4/ 8   3/ 8


USA.gov is the U.S. government's official web portal to all federal, state and local government web resources and services.